TimeAKST,TemperatureF,Dew PointF,Humidity,Sea Level PressureIn,VisibilityMPH,Wind Direction,Wind SpeedMPH,Gust SpeedMPH,PrecipitationIn,Events,Conditions,WindDirDegrees,DateUTC
12:53 AM,27.0,25.0,92,29.29,10.0,Calm,Calm,-,N/A,,Overcast,0,2012-12-14 09:53:00
1:53 AM,25.0,23.0,92,29.29,10.0,Calm,Calm,-,N/A,,Mostly Cloudy,0,2012-12-14 10:53:00
2:16 AM,24.8,23.0,93,29.28,10.0,NNW,3.5,-,0.01,,Partly Cloudy,340,2012-12-14 11:16:00
2:48 AM,21.2,21.2,100,29.28,10.0,Calm,Calm,-,0.01,,Mostly Cloudy,0,2012-12-14 11:48:00
3:53 AM,21.0,19.9,96,29.28,2.5,Calm,Calm,-,N/A,,Mostly Cloudy,0,2012-12-14 12:53:00
4:12 AM,19.4,19.4,100,29.27,0.8,Calm,Calm,-,N/A,,Overcast,0,2012-12-14 13:12:00
4:34 AM,19.4,17.6,93,29.27,2.0,Calm,Calm,-,0.01,,Mostly Cloudy,0,2012-12-14 13:34:00
4:53 AM,21.0,19.0,92,29.28,5.0,Calm,Calm,-,0.01,,Mostly Cloudy,0,2012-12-14 13:53:00
5:19 AM,21.2,19.4,93,29.26,2.0,Calm,Calm,-,N/A,,Overcast,0,2012-12-14 14:19:00
5:27 AM,21.2,21.2,100,29.26,1.0,Calm,Calm,-,N/A,,Mist,0,2012-12-14 14:27:00
5:34 AM,21.2,21.2,100,29.26,0.8,NNE,3.5,-,N/A,,Mist,30,2012-12-14 14:34:00
5:53 AM,21.9,21.9,100,29.27,1.2,Calm,Calm,-,N/A,,Overcast,0,2012-12-14 14:53:00
6:13 AM,21.2,21.2,100,29.26,2.0,Calm,Calm,-,N/A,,Overcast,0,2012-12-14 15:13:00
6:26 AM,21.2,21.2,100,29.26,3.0,Calm,Calm,-,N/A,,Overcast,0,2012-12-14 15:26:00
6:53 AM,21.9,21.0,96,29.26,3.0,Calm,Calm,-,0.01,,Overcast,0,2012-12-14 15:53:00
7:53 AM,21.9,21.0,96,29.25,3.0,Calm,Calm,-,N/A,Fog,Light Freezing Fog,0,2012-12-14 16:53:00
8:53 AM,23.0,21.0,92,29.24,2.0,Calm,Calm,-,N/A,Fog,Light Freezing Fog,0,2012-12-14 17:53:00
9:53 AM,21.9,21.0,96,29.24,3.0,North,3.5,-,0.01,Fog,Light Freezing Fog,360,2012-12-14 18:53:00
10:23 AM,21.2,21.2,100,29.23,1.0,Calm,Calm,-,N/A,Fog,Light Freezing Fog,0,2012-12-14 19:23:00
10:26 AM,21.2,21.2,100,29.23,0.8,Calm,Calm,-,N/A,Fog,Light Freezing Fog,0,2012-12-14 19:26:00
10:53 AM,21.9,21.9,100,29.24,0.5,North,3.5,-,N/A,Fog,Light Freezing Fog,350,2012-12-14 19:53:00
11:06 AM,21.2,21.2,100,29.23,1.0,NNW,4.6,-,N/A,Fog,Light Freezing Fog,330,2012-12-14 20:06:00
11:37 AM,21.2,21.2,100,29.23,0.8,North,3.5,-,N/A,Fog,Light Freezing Fog,10,2012-12-14 20:37:00
11:53 AM,21.9,21.0,96,29.24,0.5,Calm,Calm,-,N/A,Fog,Light Freezing Fog,0,2012-12-14 20:53:00
12:53 PM,21.0,19.9,96,29.23,0.5,Calm,Calm,-,0.01,Fog,Light Freezing Fog,0,2012-12-14 21:53:00
1:53 PM,21.0,21.0,100,29.21,0.5,Calm,Calm,-,N/A,Fog,Light Freezing Fog,0,2012-12-14 22:53:00
2:53 PM,21.9,21.0,96,29.21,2.0,Calm,Calm,-,N/A,,Overcast,0,2012-12-14 23:53:00
3:19 PM,21.2,19.4,93,29.20,5.0,NNW,3.5,-,0.01,,Overcast,330,2012-12-15 00:19:00
3:46 PM,21.2,19.4,93,29.19,5.0,NE,3.5,-,0.01,,Overcast,50,2012-12-15 00:46:00
3:53 PM,21.9,19.9,92,29.20,3.0,NNE,3.5,-,0.01,,Overcast,20,2012-12-15 00:53:00
4:53 PM,21.0,19.9,96,29.19,9.0,Calm,Calm,-,N/A,,Overcast,0,2012-12-15 01:53:00
5:53 PM,21.0,19.9,96,29.19,5.0,Calm,Calm,-,N/A,,Overcast,0,2012-12-15 02:53:00
6:53 PM,19.9,19.0,96,29.18,5.0,Calm,Calm,-,0.01,,Overcast,0,2012-12-15 03:53:00
7:28 PM,21.2,17.6,86,29.17,4.0,Calm,Calm,-,N/A,,Overcast,0,2012-12-15 04:28:00
7:53 PM,21.0,19.9,96,29.18,3.0,Calm,Calm,-,N/A,,Overcast,0,2012-12-15 04:53:00
8:53 PM,21.0,19.0,92,29.16,3.0,Calm,Calm,-,N/A,,Overcast,0,2012-12-15 05:53:00
9:53 PM,21.0,19.9,96,29.16,4.0,Calm,Calm,-,N/A,,Overcast,0,2012-12-15 06:53:00
10:53 PM,21.0,19.0,92,29.15,10.0,Calm,Calm,-,N/A,,Overcast,0,2012-12-15 07:53:00
11:27 PM,21.2,19.4,93,29.14,10.0,NNW,4.6,-,N/A,,Overcast,330,2012-12-15 08:27:00
11:53 PM,19.9,19.0,96,29.15,10.0,Calm,Calm,-,N/A,,Overcast,0,2012-12-15 08:53:00